Year,Month,Day,Hour,Minute,Value (Times are PST for windgust in km/hr)
2012,03,12,00,00,14.50
2012,03,12,00,01,14.50
2012,03,12,00,02,29.00
2012,03,12,00,03,19.30
2012,03,12,00,04,17.70
2012,03,12,00,05,22.50
2012,03,12,00,06,16.10
2012,03,12,00,07,17.70
2012,03,12,00,08,11.30
2012,03,12,00,09,22.50
2012,03,12,00,10,12.90
2012,03,12,00,11,12.90
2012,03,12,00,12,24.20
2012,03,12,00,13,16.10
2012,03,12,00,14,12.90
2012,03,12,00,15,27.40
2012,03,12,00,16,6.40
2012,03,12,00,17,11.30
2012,03,12,00,18,12.90
2012,03,12,00,19,6.40
2012,03,12,00,20,16.10
2012,03,12,00,21,20.90
2012,03,12,00,22,16.10
2012,03,12,00,23,14.50
2012,03,12,00,24,19.30
2012,03,12,00,25,16.10
2012,03,12,00,26,16.10
2012,03,12,00,27,16.10
2012,03,12,00,28,16.10
2012,03,12,00,29,14.50
2012,03,12,00,30,12.90
2012,03,12,00,31,16.10
2012,03,12,00,32,20.90
2012,03,12,00,33,19.30
2012,03,12,00,34,25.70
2012,03,12,00,35,20.90
2012,03,12,00,36,22.50
2012,03,12,00,37,16.10
2012,03,12,00,38,17.70
2012,03,12,00,39,14.50
2012,03,12,00,40,14.50
2012,03,12,00,41,16.10
2012,03,12,00,42,16.10
2012,03,12,00,43,12.90
2012,03,12,00,44,16.10
2012,03,12,00,45,14.50
2012,03,12,00,46,14.50
2012,03,12,00,47,16.10
2012,03,12,00,48,11.30
2012,03,12,00,49,17.70
2012,03,12,00,50,16.10
2012,03,12,00,51,14.50
2012,03,12,00,52,12.90
2012,03,12,00,53,16.10
2012,03,12,00,54,12.90
2012,03,12,00,55,8.10
2012,03,12,00,56,16.10
2012,03,12,00,57,11.30
2012,03,12,00,58,17.70
2012,03,12,00,59,14.50
2012,03,12,01,00,20.90
2012,03,12,01,01,9.60
2012,03,12,01,02,8.10
2012,03,12,01,03,17.70
2012,03,12,01,04,16.10
2012,03,12,01,05,20.90
2012,03,12,01,06,16.10
2012,03,12,01,07,12.90
2012,03,12,01,08,8.10
2012,03,12,01,09,11.30
2012,03,12,01,10,9.60
2012,03,12,01,11,11.30
2012,03,12,01,12,16.10
2012,03,12,01,13,19.30
2012,03,12,01,14,14.50
2012,03,12,01,15,9.60
2012,03,12,01,16,16.10
2012,03,12,01,17,17.70
2012,03,12,01,18,16.10
2012,03,12,01,19,14.50
2012,03,12,01,20,12.90
2012,03,12,01,21,16.10
2012,03,12,01,22,17.70
2012,03,12,01,23,12.90
2012,03,12,01,24,11.30
2012,03,12,01,25,19.30
2012,03,12,01,26,14.50
2012,03,12,01,27,16.10
2012,03,12,01,28,14.50
2012,03,12,01,29,8.10
2012,03,12,01,30,12.90
2012,03,12,01,31,9.60
2012,03,12,01,32,12.90
2012,03,12,01,33,12.90
2012,03,12,01,34,14.50
2012,03,12,01,35,16.10
2012,03,12,01,36,17.70
2012,03,12,01,37,19.30
2012,03,12,01,38,14.50
2012,03,12,01,39,9.60
2012,03,12,01,40,8.10
2012,03,12,01,41,12.90
2012,03,12,01,42,17.70
2012,03,12,01,43,14.50
2012,03,12,01,44,17.70
2012,03,12,01,45,9.60
2012,03,12,01,46,6.40
2012,03,12,01,47,11.30
2012,03,12,01,48,11.30
2012,03,12,01,49,14.50
2012,03,12,01,50,17.70
2012,03,12,01,51,22.50
2012,03,12,01,52,19.30
2012,03,12,01,53,16.10
2012,03,12,01,54,17.70
2012,03,12,01,55,19.30
2012,03,12,01,56,17.70
2012,03,12,01,57,14.50
2012,03,12,01,58,29.00
2012,03,12,01,59,32.20
2012,03,12,02,00,33.80
2012,03,12,02,01,17.70
2012,03,12,02,02,19.30
2012,03,12,02,03,16.10
2012,03,12,02,04,19.30
2012,03,12,02,05,16.10
2012,03,12,02,06,16.10
2012,03,12,02,07,19.30
2012,03,12,02,08,17.70
2012,03,12,02,09,17.70
2012,03,12,02,10,17.70
2012,03,12,02,11,16.10
2012,03,12,02,12,22.50
2012,03,12,02,13,25.70
2012,03,12,02,14,27.40
2012,03,12,02,15,12.90
2012,03,12,02,16,9.60
2012,03,12,02,17,20.90
2012,03,12,02,18,17.70
2012,03,12,02,19,12.90
2012,03,12,02,20,6.40
2012,03,12,02,21,17.70
2012,03,12,02,22,12.90
2012,03,12,02,23,14.50
2012,03,12,02,24,14.50
2012,03,12,02,25,17.70
2012,03,12,02,26,16.10
2012,03,12,02,27,16.10
2012,03,12,02,28,20.90
2012,03,12,02,29,20.90
2012,03,12,02,30,17.70
2012,03,12,02,31,14.50
2012,03,12,02,32,12.90
2012,03,12,02,33,14.50
2012,03,12,02,34,14.50
2012,03,12,02,35,11.30
2012,03,12,02,36,14.50
2012,03,12,02,37,12.90
2012,03,12,02,38,8.10
2012,03,12,02,39,20.90
2012,03,12,02,40,25.70
2012,03,12,02,41,20.90
2012,03,12,02,42,9.60
2012,03,12,02,43,16.10
2012,03,12,02,44,29.00
2012,03,12,02,45,24.20
2012,03,12,02,46,20.90
2012,03,12,02,47,16.10
2012,03,12,02,48,24.20
2012,03,12,02,49,27.40
2012,03,12,02,50,25.70
2012,03,12,02,51,22.50
2012,03,12,02,52,14.50
2012,03,12,02,53,12.90
2012,03,12,02,54,25.70
2012,03,12,02,55,19.30
2012,03,12,02,56,17.70
2012,03,12,02,57,20.90
2012,03,12,02,58,20.90
2012,03,12,02,59,24.20
2012,03,12,03,00,20.90
2012,03,12,03,01,30.60
2012,03,12,03,02,24.20
2012,03,12,03,03,29.00
2012,03,12,03,04,22.50
2012,03,12,03,05,22.50
2012,03,12,03,06,22.50
2012,03,12,03,07,24.20
2012,03,12,03,08,11.30
2012,03,12,03,09,17.70
2012,03,12,03,10,22.50
2012,03,12,03,11,22.50
2012,03,12,03,12,22.50
2012,03,12,03,13,33.80
2012,03,12,03,14,22.50
2012,03,12,03,15,14.50
2012,03,12,03,16,25.70
2012,03,12,03,17,17.70
2012,03,12,03,18,19.30
2012,03,12,03,19,22.50
2012,03,12,03,20,22.50
2012,03,12,03,21,37.00
2012,03,12,03,22,16.10
2012,03,12,03,23,19.30
2012,03,12,03,24,20.90
2012,03,12,03,25,14.50
2012,03,12,03,26,25.70
2012,03,12,03,27,25.70
2012,03,12,03,28,27.40
2012,03,12,03,29,29.00
2012,03,12,03,30,19.30
2012,03,12,03,31,25.70
2012,03,12,03,32,17.70
2012,03,12,03,33,25.70
2012,03,12,03,34,25.70
2012,03,12,03,35,27.40
2012,03,12,03,36,29.00
2012,03,12,03,37,22.50
2012,03,12,03,38,27.40
2012,03,12,03,39,29.00
2012,03,12,03,40,27.40
2012,03,12,03,41,27.40
2012,03,12,03,42,24.20
2012,03,12,03,43,25.70
2012,03,12,03,44,20.90
2012,03,12,03,45,24.20
2012,03,12,03,46,37.00
2012,03,12,03,47,30.60
2012,03,12,03,48,24.20
2012,03,12,03,49,24.20
2012,03,12,03,50,20.90
2012,03,12,03,51,27.40
2012,03,12,03,52,22.50
2012,03,12,03,53,20.90
2012,03,12,03,54,29.00
2012,03,12,03,55,29.00
2012,03,12,03,56,19.30
2012,03,12,03,57,22.50
2012,03,12,03,58,27.40
2012,03,12,03,59,22.50
2012,03,12,04,00,19.30
2012,03,12,04,01,12.90
2012,03,12,04,02,20.90
2012,03,12,04,03,17.70
2012,03,12,04,04,24.20
2012,03,12,04,05,19.30
2012,03,12,04,06,14.50
2012,03,12,04,07,35.40
2012,03,12,04,08,27.40
2012,03,12,04,09,24.20
2012,03,12,04,10,22.50
2012,03,12,04,11,24.20
2012,03,12,04,12,24.20
2012,03,12,04,13,22.50
2012,03,12,04,14,33.80
2012,03,12,04,15,20.90
2012,03,12,04,16,25.70
2012,03,12,04,17,38.60
2012,03,12,04,18,37.00
2012,03,12,04,19,25.70
2012,03,12,04,20,35.40
2012,03,12,04,21,45.10
2012,03,12,04,22,33.80
2012,03,12,04,23,35.40
2012,03,12,04,24,24.20
2012,03,12,04,25,32.20
2012,03,12,04,26,27.40
2012,03,12,04,27,37.00
2012,03,12,04,28,33.80
2012,03,12,04,29,32.20
2012,03,12,04,30,32.20
2012,03,12,04,31,27.40
2012,03,12,04,32,33.80
2012,03,12,04,33,49.90
2012,03,12,04,34,53.10
2012,03,12,04,35,35.40
2012,03,12,04,36,33.80
2012,03,12,04,37,41.80
2012,03,12,04,38,33.80
2012,03,12,04,39,17.70
2012,03,12,04,40,27.40
2012,03,12,04,41,30.60
2012,03,12,04,42,37.00
2012,03,12,04,43,35.40
2012,03,12,04,44,35.40
2012,03,12,04,45,33.80
2012,03,12,04,46,19.30
2012,03,12,04,47,49.90
2012,03,12,04,48,40.20
2012,03,12,04,49,33.80
2012,03,12,04,50,37.00
2012,03,12,04,51,37.00
2012,03,12,04,52,35.40
2012,03,12,04,53,41.80
2012,03,12,04,54,41.80
2012,03,12,04,55,33.80
2012,03,12,04,56,37.00
2012,03,12,04,57,25.70
2012,03,12,04,58,25.70
2012,03,12,04,59,35.40
2012,03,12,05,00,33.80
2012,03,12,05,01,37.00
2012,03,12,05,02,32.20
2012,03,12,05,03,16.10
2012,03,12,05,04,38.60
2012,03,12,05,05,37.00
2012,03,12,05,06,41.80
2012,03,12,05,07,37.00
2012,03,12,05,08,30.60
2012,03,12,05,09,48.30
2012,03,12,05,10,40.20
2012,03,12,05,11,37.00
2012,03,12,05,12,41.80
2012,03,12,05,13,20.90
2012,03,12,05,14,29.00
2012,03,12,05,15,45.10
2012,03,12,05,16,48.30
2012,03,12,05,17,43.50
2012,03,12,05,18,33.80
2012,03,12,05,19,40.20
2012,03,12,05,20,48.30
2012,03,12,05,21,41.80
2012,03,12,05,22,41.80
2012,03,12,05,23,38.60
2012,03,12,05,24,45.10
2012,03,12,05,25,61.20
2012,03,12,05,26,46.70
2012,03,12,05,27,48.30
2012,03,12,05,28,48.30
2012,03,12,05,29,53.10
2012,03,12,05,30,37.00
2012,03,12,05,31,41.80
2012,03,12,05,32,49.90
2012,03,12,05,33,41.80
2012,03,12,05,34,48.30
2012,03,12,05,35,38.60
2012,03,12,05,36,48.30
2012,03,12,05,37,43.50
2012,03,12,05,38,37.00
2012,03,12,05,39,59.50
2012,03,12,05,40,49.90
2012,03,12,05,41,32.20
2012,03,12,05,42,33.80
2012,03,12,05,43,56.30
2012,03,12,05,44,49.90
2012,03,12,05,45,49.90
2012,03,12,05,46,40.20
2012,03,12,05,47,43.50
2012,03,12,05,48,54.70
2012,03,12,05,49,46.70
2012,03,12,05,50,56.30
2012,03,12,05,51,49.90
2012,03,12,05,52,51.50
2012,03,12,05,53,33.80
2012,03,12,05,54,35.40
2012,03,12,05,55,54.70
2012,03,12,05,56,46.70
2012,03,12,05,57,35.40
2012,03,12,05,58,45.10
2012,03,12,05,59,49.90
2012,03,12,06,00,43.50
2012,03,12,06,01,38.60
2012,03,12,06,02,45.10
2012,03,12,06,03,67.60
2012,03,12,06,04,49.90
2012,03,12,06,05,53.10
2012,03,12,06,06,48.30
2012,03,12,06,07,27.40
2012,03,12,06,08,40.20
2012,03,12,06,09,48.30
2012,03,12,06,10,41.80
2012,03,12,06,11,54.70
2012,03,12,06,12,56.30
2012,03,12,06,13,41.80
2012,03,12,06,14,29.00
2012,03,12,06,15,54.70
2012,03,12,06,16,53.10
2012,03,12,06,17,56.30
2012,03,12,06,18,59.50
2012,03,12,06,19,40.20
2012,03,12,06,20,43.50
2012,03,12,06,21,41.80
2012,03,12,06,22,40.20
2012,03,12,06,23,57.90
2012,03,12,06,24,56.30
2012,03,12,06,25,43.50
2012,03,12,06,26,40.20
2012,03,12,06,27,48.30
2012,03,12,06,28,51.50
2012,03,12,06,29,67.60
2012,03,12,06,30,29.00
2012,03,12,06,31,62.70
2012,03,12,06,32,66.00
2012,03,12,06,33,46.70
2012,03,12,06,34,37.00
2012,03,12,06,35,41.80
2012,03,12,06,36,45.10
2012,03,12,06,37,45.10
2012,03,12,06,38,43.50
2012,03,12,06,39,66.00
2012,03,12,06,40,40.20
2012,03,12,06,41,29.00
2012,03,12,06,42,45.10
2012,03,12,06,43,56.30
2012,03,12,06,44,38.60
2012,03,12,06,45,72.40
2012,03,12,06,46,59.50
2012,03,12,06,47,35.40
2012,03,12,06,48,53.10
2012,03,12,06,49,54.70
2012,03,12,06,50,64.40
2012,03,12,06,51,72.40
2012,03,12,06,52,49.90
2012,03,12,06,53,45.10
2012,03,12,06,54,30.60
2012,03,12,06,55,45.10
2012,03,12,06,56,41.80
2012,03,12,06,57,38.60
2012,03,12,06,58,49.90
2012,03,12,06,59,46.70
2012,03,12,07,00,46.70
2012,03,12,07,01,35.40
2012,03,12,07,02,51.50
2012,03,12,07,03,37.00
2012,03,12,07,04,43.50
2012,03,12,07,05,43.50
2012,03,12,07,06,62.70
2012,03,12,07,07,56.30
2012,03,12,07,08,53.10
2012,03,12,07,09,51.50
2012,03,12,07,10,37.00
2012,03,12,07,11,56.30
2012,03,12,07,12,45.10
2012,03,12,07,13,48.30
2012,03,12,07,14,48.30
2012,03,12,07,15,59.50
2012,03,12,07,16,46.70
2012,03,12,07,17,40.20
2012,03,12,07,18,46.70
2012,03,12,07,19,40.20
2012,03,12,07,20,40.20
2012,03,12,07,21,40.20
2012,03,12,07,22,40.20
2012,03,12,07,23,40.20
2012,03,12,07,24,40.20
2012,03,12,07,25,59.50
2012,03,12,07,26,57.90
2012,03,12,07,27,45.10
2012,03,12,07,28,48.30
2012,03,12,07,29,51.50
2012,03,12,07,30,41.80
2012,03,12,07,31,41.80
2012,03,12,07,32,33.80
2012,03,12,07,33,56.30
2012,03,12,07,34,48.30
2012,03,12,07,35,49.90
2012,03,12,07,36,49.90
2012,03,12,07,37,41.80
2012,03,12,07,38,43.50
2012,03,12,07,39,45.10
2012,03,12,07,40,45.10
2012,03,12,07,41,53.10
2012,03,12,07,42,41.80
2012,03,12,07,43,53.10
2012,03,12,07,44,37.00
2012,03,12,07,45,43.50
2012,03,12,07,46,40.20
2012,03,12,07,47,45.10
2012,03,12,07,48,33.80
2012,03,12,07,49,46.70
2012,03,12,07,50,51.50
2012,03,12,07,51,64.40
2012,03,12,07,52,54.70
2012,03,12,07,53,40.20
2012,03,12,07,54,40.20
2012,03,12,07,55,38.60
2012,03,12,07,56,40.20
2012,03,12,07,57,29.00
2012,03,12,07,58,45.10
2012,03,12,07,59,48.30
2012,03,12,08,00,48.30
2012,03,12,08,01,45.10
2012,03,12,08,02,37.00
2012,03,12,08,03,30.60
2012,03,12,08,04,51.50
2012,03,12,08,05,53.10
2012,03,12,08,06,41.80
2012,03,12,08,07,45.10
2012,03,12,08,08,51.50
2012,03,12,08,09,53.10
2012,03,12,08,10,49.90
2012,03,12,08,11,48.30
2012,03,12,08,12,46.70
2012,03,12,08,13,67.60
2012,03,12,08,14,40.20
2012,03,12,08,15,51.50
2012,03,12,08,16,35.40
2012,03,12,08,17,35.40
2012,03,12,08,18,32.20
2012,03,12,08,19,35.40
2012,03,12,08,20,48.30
2012,03,12,08,21,46.70
2012,03,12,08,22,53.10
2012,03,12,08,23,51.50
2012,03,12,08,24,35.40
2012,03,12,08,25,40.20
2012,03,12,08,26,49.90
2012,03,12,08,27,43.50
2012,03,12,08,28,49.90
2012,03,12,08,29,46.70
2012,03,12,08,30,57.90
2012,03,12,08,31,48.30
2012,03,12,08,32,43.50
2012,03,12,08,33,59.50
2012,03,12,08,34,38.60
2012,03,12,08,35,46.70
2012,03,12,08,36,48.30
2012,03,12,08,37,51.50
2012,03,12,08,38,45.10
2012,03,12,14,14,11.30
2012,03,12,14,15,8.10
2012,03,12,14,16,9.60
2012,03,12,14,17,9.60
2012,03,12,14,18,11.30
2012,03,12,14,19,12.90
2012,03,12,14,20,19.30
2012,03,12,14,21,16.10
2012,03,12,14,22,9.60
2012,03,12,14,23,11.30
2012,03,12,14,24,8.10
2012,03,12,14,25,6.40
2012,03,12,14,26,11.30
2012,03,12,14,27,9.60
2012,03,12,14,28,9.60
2012,03,12,14,29,12.90
2012,03,12,14,30,8.10
2012,03,12,14,31,8.10
2012,03,12,14,32,4.80
2012,03,12,14,33,8.10
2012,03,12,14,34,12.90
2012,03,12,14,35,14.50
2012,03,12,14,36,9.60
2012,03,12,14,37,11.30
2012,03,12,14,38,6.40
2012,03,12,14,39,8.10
2012,03,12,14,40,11.30
2012,03,12,14,41,4.80
2012,03,12,14,42,11.30
2012,03,12,14,43,11.30
2012,03,12,14,44,8.10
2012,03,12,14,45,4.80
2012,03,12,14,46,6.40
2012,03,12,14,47,4.80
2012,03,12,14,48,6.40
2012,03,12,14,49,6.40
2012,03,12,14,50,8.10
2012,03,12,14,51,6.40
2012,03,12,14,52,6.40
2012,03,12,14,53,8.10
2012,03,12,14,54,6.40
2012,03,12,14,55,9.60
2012,03,12,14,56,9.60
2012,03,12,14,57,8.10
2012,03,12,14,58,6.40
2012,03,12,14,59,6.40
2012,03,12,15,00,8.10
2012,03,12,15,01,8.10
2012,03,12,15,02,6.40
2012,03,12,15,03,4.80
2012,03,12,15,04,6.40
2012,03,12,15,05,4.80
2012,03,12,15,06,6.40
2012,03,12,15,07,6.40
2012,03,12,15,08,6.40
2012,03,12,15,09,6.40
2012,03,12,15,10,4.80
2012,03,12,15,11,4.80
2012,03,12,15,12,4.80
2012,03,12,15,13,4.80
2012,03,12,15,14,8.10
2012,03,12,15,15,6.40
2012,03,12,15,16,6.40
2012,03,12,15,17,9.60
2012,03,12,15,18,11.30
2012,03,12,15,19,6.40
2012,03,12,15,20,4.80
2012,03,12,15,21,8.10
2012,03,12,15,22,6.40
2012,03,12,15,23,6.40
2012,03,12,15,24,6.40
2012,03,12,15,25,4.80
2012,03,12,15,26,6.40
2012,03,12,15,27,6.40
2012,03,12,15,28,3.20
2012,03,12,15,29,6.40
2012,03,12,15,30,4.80
2012,03,12,15,31,9.60
2012,03,12,15,32,8.10
2012,03,12,15,33,3.20
2012,03,12,15,34,8.10
2012,03,12,15,35,8.10
2012,03,12,15,36,6.40
2012,03,12,15,37,3.20
2012,03,12,15,38,4.80
2012,03,12,15,39,8.10
2012,03,12,15,40,6.40
2012,03,12,15,41,3.20
2012,03,12,15,42,6.40
2012,03,12,15,43,3.20
2012,03,12,15,44,6.40
2012,03,12,15,45,8.10
2012,03,12,15,46,6.40
2012,03,12,15,47,4.80
2012,03,12,15,48,4.80
2012,03,12,15,49,6.40
2012,03,12,15,50,6.40
2012,03,12,15,51,4.80
2012,03,12,15,52,4.80
2012,03,12,15,53,4.80
2012,03,12,15,54,4.80
2012,03,12,15,55,3.20
2012,03,12,15,56,3.20
2012,03,12,15,57,1.60
2012,03,12,15,58,3.20
2012,03,12,15,59,4.80
2012,03,12,16,00,4.80
2012,03,12,16,01,1.60
2012,03,12,16,02,1.60
2012,03,12,16,03,3.20
2012,03,12,16,04,4.80
2012,03,12,16,05,4.80
2012,03,12,16,06,1.60
2012,03,12,16,07,3.20
2012,03,12,16,08,4.80
2012,03,12,16,09,4.80
2012,03,12,16,10,3.20
2012,03,12,16,12,1.60
2012,03,12,16,13,4.80
2012,03,12,16,14,1.60
2012,03,12,16,16,1.60
2012,03,12,16,17,3.20
2012,03,12,16,18,3.20
2012,03,12,16,19,3.20
2012,03,12,16,20,1.60
2012,03,12,16,21,3.20
2012,03,12,16,22,3.20
2012,03,12,16,23,4.80
2012,03,12,16,24,4.80
2012,03,12,16,25,4.80
2012,03,12,16,26,3.20
2012,03,12,16,27,4.80
2012,03,12,16,28,3.20
2012,03,12,16,29,1.60
2012,03,12,16,30,3.20
2012,03,12,16,31,3.20
2012,03,12,16,32,3.20
2012,03,12,16,33,3.20
2012,03,12,16,34,1.60
2012,03,12,16,35,1.60
2012,03,12,16,36,1.60
2012,03,12,16,37,3.20
2012,03,12,16,38,3.20
2012,03,12,16,39,3.20
2012,03,12,16,40,3.20
2012,03,12,16,41,3.20
2012,03,12,16,44,1.60
2012,03,12,16,46,1.60
2012,03,12,16,49,1.60
2012,03,12,16,53,1.60
2012,03,12,16,54,1.60
2012,03,12,16,55,3.20
2012,03,12,16,57,1.60
2012,03,12,16,58,1.60
2012,03,12,16,59,4.80
2012,03,12,17,00,3.20
2012,03,12,17,01,1.60
2012,03,12,17,02,1.60
2012,03,12,17,03,3.20
2012,03,12,17,04,3.20
2012,03,12,17,05,1.60
2012,03,12,17,06,1.60
2012,03,12,17,07,3.20
2012,03,12,17,08,1.60
2012,03,12,17,11,1.60
2012,03,12,17,12,4.80
2012,03,12,17,13,4.80
2012,03,12,17,14,1.60
2012,03,12,17,15,1.60
2012,03,12,17,16,4.80
2012,03,12,17,17,3.20
2012,03,12,17,18,3.20
2012,03,12,17,20,4.80
2012,03,12,17,21,4.80
2012,03,12,17,22,3.20
2012,03,12,17,23,4.80
2012,03,12,17,24,4.80
2012,03,12,17,25,4.80
2012,03,12,17,26,1.60
2012,03,12,17,27,4.80
2012,03,12,17,28,1.60
2012,03,12,17,30,3.20
2012,03,12,17,31,4.80
2012,03,12,17,32,4.80
2012,03,12,17,33,3.20
2012,03,12,17,34,6.40
2012,03,12,17,35,3.20
2012,03,12,17,36,1.60
2012,03,12,17,37,3.20
2012,03,12,17,38,1.60
2012,03,12,17,39,1.60
2012,03,12,17,41,1.60
2012,03,12,17,42,1.60
2012,03,12,17,43,1.60
2012,03,12,17,44,1.60
2012,03,12,17,51,3.20
2012,03,12,17,52,1.60
2012,03,12,17,53,1.60
2012,03,12,17,57,3.20
2012,03,12,17,58,1.60
2012,03,12,17,59,3.20
2012,03,12,18,02,1.60
2012,03,12,18,03,1.60
2012,03,12,18,04,3.20
2012,03,12,18,05,4.80
2012,03,12,18,06,4.80
2012,03,12,18,07,4.80
2012,03,12,18,08,3.20
2012,03,12,18,09,3.20
2012,03,12,18,10,4.80
2012,03,12,18,11,4.80
2012,03,12,18,12,1.60
2012,03,12,18,13,1.60
2012,03,12,18,15,1.60
2012,03,12,18,27,1.60
2012,03,12,18,28,1.60
2012,03,12,18,29,1.60
2012,03,12,18,30,1.60
2012,03,12,18,31,1.60
2012,03,12,18,32,1.60
2012,03,12,18,47,1.60
2012,03,12,18,50,3.20
2012,03,12,18,51,3.20
2012,03,12,18,52,4.80
2012,03,12,18,53,3.20
2012,03,12,18,54,3.20
2012,03,12,18,55,3.20
2012,03,12,18,56,1.60
2012,03,12,18,57,3.20
2012,03,12,18,58,4.80
2012,03,12,18,59,1.60
2012,03,12,19,00,3.20
2012,03,12,19,01,4.80
2012,03,12,19,02,4.80
2012,03,12,19,03,4.80
2012,03,12,19,04,3.20
2012,03,12,19,05,3.20
2012,03,12,19,06,1.60
2012,03,12,19,09,1.60
2012,03,12,19,10,3.20
2012,03,12,19,11,1.60
2012,03,12,19,13,1.60
2012,03,12,19,20,4.80
2012,03,12,19,22,1.60
2012,03,12,19,23,3.20
2012,03,12,19,25,3.20
2012,03,12,19,26,3.20
2012,03,12,19,27,4.80
2012,03,12,19,28,4.80
2012,03,12,19,29,3.20
2012,03,12,19,30,3.20
2012,03,12,19,31,14.50
2012,03,12,19,32,12.90
2012,03,12,19,33,14.50
2012,03,12,19,34,9.60
2012,03,12,19,35,9.60
2012,03,12,19,36,17.70
2012,03,12,19,37,16.10
2012,03,12,19,38,11.30
2012,03,12,19,39,4.80
2012,03,12,19,40,14.50
2012,03,12,19,41,29.00
2012,03,12,19,42,20.90
2012,03,12,19,43,16.10
2012,03,12,19,44,11.30
2012,03,12,19,45,20.90
2012,03,12,19,46,14.50
2012,03,12,19,47,19.30
2012,03,12,19,48,11.30
2012,03,12,19,49,16.10
2012,03,12,19,50,27.40
2012,03,12,19,51,20.90
2012,03,12,19,52,19.30
2012,03,12,19,53,24.20
2012,03,12,19,54,16.10
2012,03,12,19,55,11.30
2012,03,12,19,56,20.90
2012,03,12,19,57,12.90
2012,03,12,19,58,25.70
2012,03,12,19,59,17.70
2012,03,12,20,00,19.30
2012,03,12,20,01,22.50
2012,03,12,20,02,25.70
2012,03,12,20,03,16.10
2012,03,12,20,04,16.10
2012,03,12,20,05,16.10
2012,03,12,20,06,27.40
2012,03,12,20,07,24.20
2012,03,12,20,08,11.30
2012,03,12,20,09,19.30
2012,03,12,20,10,22.50
2012,03,12,20,11,17.70
2012,03,12,20,12,22.50
2012,03,12,20,13,22.50
2012,03,12,20,14,29.00
2012,03,12,20,15,25.70
2012,03,12,20,16,12.90
2012,03,12,20,17,14.50
2012,03,12,20,18,17.70
2012,03,12,20,19,16.10
2012,03,12,20,20,19.30
2012,03,12,20,21,19.30
2012,03,12,20,22,22.50
2012,03,12,20,23,14.50
2012,03,12,20,24,24.20
2012,03,12,20,25,19.30
2012,03,12,20,26,16.10
2012,03,12,20,27,11.30
2012,03,12,20,28,12.90
2012,03,12,20,29,14.50
2012,03,12,20,30,16.10
2012,03,12,20,31,19.30
2012,03,12,20,32,14.50
2012,03,12,20,33,14.50
2012,03,12,20,34,11.30
2012,03,12,20,35,12.90
2012,03,12,20,36,11.30
2012,03,12,20,37,11.30
2012,03,12,20,38,11.30
2012,03,12,20,39,11.30
2012,03,12,20,40,11.30
2012,03,12,20,41,11.30
2012,03,12,20,42,11.30
2012,03,12,20,43,14.50
2012,03,12,20,44,14.50
2012,03,12,20,45,14.50
2012,03,12,20,46,14.50
2012,03,12,20,47,14.50
2012,03,12,20,48,8.10
2012,03,12,20,49,6.40
2012,03,12,20,50,6.40
2012,03,12,20,51,20.90
2012,03,12,20,52,22.50
2012,03,12,20,53,14.50
2012,03,12,20,54,14.50
2012,03,12,20,55,12.90
2012,03,12,20,56,16.10
2012,03,12,20,57,17.70
2012,03,12,20,58,19.30
2012,03,12,20,59,17.70
2012,03,12,21,00,14.50
2012,03,12,21,01,20.90
2012,03,12,21,02,14.50
2012,03,12,21,03,14.50
2012,03,12,21,04,16.10
2012,03,12,21,05,17.70
2012,03,12,21,06,17.70
2012,03,12,21,07,16.10
2012,03,12,21,08,14.50
2012,03,12,21,09,19.30
2012,03,12,21,10,16.10
2012,03,12,21,11,20.90
2012,03,12,21,12,17.70
2012,03,12,21,13,17.70
2012,03,12,21,14,17.70
2012,03,12,21,15,14.50
2012,03,12,21,16,19.30
2012,03,12,21,17,16.10
2012,03,12,21,18,17.70
2012,03,12,21,19,14.50
2012,03,12,21,20,14.50
2012,03,12,21,21,19.30
2012,03,12,21,22,12.90
2012,03,12,21,23,16.10
2012,03,12,21,24,22.50
2012,03,12,21,25,19.30
2012,03,12,21,26,17.70
2012,03,12,21,27,22.50
2012,03,12,21,28,17.70
2012,03,12,21,29,17.70
2012,03,12,21,30,16.10
2012,03,12,21,31,16.10
2012,03,12,21,32,16.10
2012,03,12,21,33,14.50
2012,03,12,21,34,14.50
2012,03,12,21,35,9.60
2012,03,12,21,36,19.30
2012,03,12,21,37,16.10
2012,03,12,21,38,16.10
2012,03,12,21,39,14.50
2012,03,12,21,40,16.10
2012,03,12,21,41,17.70
2012,03,12,21,42,16.10
2012,03,12,21,43,12.90
2012,03,12,21,44,19.30
2012,03,12,21,45,19.30
2012,03,12,21,46,19.30
2012,03,12,21,47,17.70
2012,03,12,21,48,20.90
2012,03,12,21,49,17.70
2012,03,12,21,50,20.90
2012,03,12,21,51,22.50
2012,03,12,21,52,25.70
2012,03,12,21,53,22.50
2012,03,12,21,54,22.50
2012,03,12,21,55,17.70
2012,03,12,21,56,9.60
2012,03,12,21,57,16.10
2012,03,12,21,58,19.30
2012,03,12,21,59,24.20
2012,03,12,22,00,16.10
2012,03,12,22,01,14.50
2012,03,12,22,02,24.20
2012,03,12,22,03,22.50
2012,03,12,22,04,24.20
2012,03,12,22,05,29.00
2012,03,12,22,06,19.30
2012,03,12,22,07,24.20
2012,03,12,22,08,27.40
2012,03,12,22,09,33.80
2012,03,12,22,10,27.40
2012,03,12,22,11,25.70
2012,03,12,22,12,30.60
2012,03,12,22,13,29.00
2012,03,12,22,14,24.20
2012,03,12,22,15,40.20
2012,03,12,22,16,27.40
2012,03,12,22,17,29.00
2012,03,12,22,18,29.00
2012,03,12,22,19,30.60
2012,03,12,22,20,19.30
2012,03,12,22,21,17.70
2012,03,12,22,22,24.20
2012,03,12,22,23,24.20
2012,03,12,22,24,22.50
2012,03,12,22,25,22.50
2012,03,12,22,26,20.90
2012,03,12,22,27,17.70
2012,03,12,22,28,19.30
2012,03,12,22,29,20.90
2012,03,12,22,30,20.90
2012,03,12,22,31,14.50
2012,03,12,22,32,19.30
2012,03,12,22,33,16.10
2012,03,12,22,34,19.30
2012,03,12,22,35,20.90
2012,03,12,22,36,25.70
2012,03,12,22,37,27.40
2012,03,12,22,38,19.30
2012,03,12,22,39,20.90
2012,03,12,22,40,24.20
2012,03,12,22,41,24.20
2012,03,12,22,42,20.90
2012,03,12,22,43,24.20
2012,03,12,22,44,14.50
2012,03,12,22,45,20.90
2012,03,12,22,46,19.30
2012,03,12,22,47,17.70
2012,03,12,22,48,16.10
2012,03,12,22,49,20.90
2012,03,12,22,50,16.10
2012,03,12,22,51,19.30
2012,03,12,22,52,24.20
2012,03,12,22,53,22.50
2012,03,12,22,54,22.50
2012,03,12,22,55,16.10
2012,03,12,22,56,11.30
2012,03,12,22,57,17.70
2012,03,12,22,58,19.30
2012,03,12,22,59,22.50
2012,03,12,23,00,19.30
2012,03,12,23,01,20.90
2012,03,12,23,02,29.00
2012,03,12,23,03,20.90
2012,03,12,23,04,17.70
2012,03,12,23,05,19.30
2012,03,12,23,06,19.30
2012,03,12,23,07,16.10
2012,03,12,23,08,12.90
2012,03,12,23,09,12.90
2012,03,12,23,10,16.10
2012,03,12,23,11,8.10
2012,03,12,23,12,14.50
2012,03,12,23,13,14.50
2012,03,12,23,14,17.70
2012,03,12,23,15,16.10
2012,03,12,23,16,16.10
2012,03,12,23,17,16.10
2012,03,12,23,18,9.60
2012,03,12,23,19,14.50
2012,03,12,23,20,17.70
2012,03,12,23,21,16.10
2012,03,12,23,22,16.10
2012,03,12,23,23,16.10
2012,03,12,23,24,14.50
2012,03,12,23,25,12.90
2012,03,12,23,26,9.60
2012,03,12,23,27,6.40
2012,03,12,23,28,9.60
2012,03,12,23,29,6.40
2012,03,12,23,30,8.10
2012,03,12,23,31,8.10
2012,03,12,23,32,6.40
2012,03,12,23,33,6.40
2012,03,12,23,34,8.10
2012,03,12,23,35,8.10
2012,03,12,23,36,8.10
2012,03,12,23,37,6.40
2012,03,12,23,38,4.80
2012,03,12,23,39,4.80
2012,03,12,23,40,6.40
2012,03,12,23,41,9.60
2012,03,12,23,42,12.90
2012,03,12,23,43,11.30
2012,03,12,23,44,11.30
2012,03,12,23,45,16.10
2012,03,12,23,46,16.10
2012,03,12,23,47,11.30
2012,03,12,23,48,9.60
2012,03,12,23,49,12.90
2012,03,12,23,50,22.50
2012,03,12,23,51,22.50
2012,03,12,23,52,12.90
2012,03,12,23,53,9.60
2012,03,12,23,54,14.50
2012,03,12,23,55,17.70
2012,03,12,23,56,16.10
2012,03,12,23,57,19.30
2012,03,12,23,58,25.70
2012,03,12,23,59,17.70
